Location: Unspecified
(0.0000°N, 0.0000°E)
Time: 08:38:56
(UTC+02:00)

Cosmos 1536 - Visible Passes

Search period start: 07 May 2015 00:00
Search period end: 17 May 2015 00:00
Orbit: 546 x 564 km, 82.5° (Epoch: 05 May)

Date Brightness Start Highest point End Pass type
(mag) Time Alt. Az. Time Alt. Az. Time Alt. Az.
12 May 5.3 21:42:18 10° NNE 21:42:42 13° NNE 21:42:42 13° NNE visible
13 May 4.7 21:39:30 10° N 21:40:50 20° NNE 21:40:50 20° NNE visible
14 May 4.0 21:36:42 10° N 21:39:01 33° N 21:39:01 33° N visible
15 May 3.0 21:33:57 10° N 21:37:15 60° N 21:37:15 60° N visible
16 May 2.8 21:31:12 10° N 21:35:11 79° W 21:35:32 71° SSW visible
